Weather History for Fresno, CA

Change the Weather History Date:

Wednesday, February 29, 2012

  Actual Average Record
Temperature  
Mean Temperature 52 °F 54 °F  
Max Temperature 59 °F 65 °F 76 °F (1924)
Min Temperature 45 °F 44 °F 30 °F (1888)
Degree Days  
Heating Degree Days 13    
Month to date heating degree days 352  
Since 1 July heating degree days 1792  
Cooling Degree Days 0    
Month to date cooling degree days 0  
Year to date cooling degree days 0  
Growing Degree Days 1 (Base 50)    
Moisture  
Dew Point 40 °F    
Average Humidity 66    
Maximum Humidity 86    
Minimum Humidity 46    
Precipitation  
Precipitation 0.27 in 0.07 in 0.60 in (1988)
Month to date precipitation 0.75 2.03  
Year to date precipitation 2.13 4.22  
Since 1 July precipitation 3.70 7.88  
Snow  
Snow 0.00 in - - ()
Month to date snowfall 0.0  
Since 1 July snowfall 0.0  
Snow Depth 0.00 in    
Sea Level Pressure  
Sea Level Pressure 30.22 in    
Wind  
Wind Speed 10 mph (ESE)    
Max Wind Speed 22 mph    
Max Gust Speed 26 mph    
Visibility 8 miles    
Events Rain    
T = Trace of Precipitation, MM = Missing Value Source: NWS Daily Summary

Daily Weather History Graph

Daily Weather History Graph

Search for Another Location

Airport:

Trip Planner

Search our weather history database for the weather conditions in past years. The results will help you decide how hot, cold, wet, or windy it might be!

Date:

Astronomy

Feb. 29, 2012 Rise Set
Actual Time 6:30 AM PST 5:52 PM PST
Civil Twilight 6:04 AM PST 6:18 PM PST
Nautical Twilight 5:34 AM PST 6:48 PM PST
Astronomical Twilight 5:04 AM PST 7:18 PM PST
Moon 10:36 AM PST (2/29) 12:32 AM PST (2/29)
Length of Visible Light 12h 14m
Length of Day
11h 22m
Waxing Crescent, 48% of the Moon is Illuminated
Feb 29
Waxing Crescent
Feb 29
First Quarter
Mar 8
Full
Mar 14
Last Quarter
Mar 22
New

Hourly Weather History & Observations

Time (PST) Temp. Windchill Dew Point Humidity Pressure Visibility Wind Dir Wind Speed Gust Speed Precip Events Conditions
12:53 AM 46.0 °F 44.8 °F 36.0 °F 68% 30.26 in 10.0 mi SE 3.5 mph - N/A   Overcast
1:53 AM 46.9 °F - 36.0 °F 66% 30.26 in 10.0 mi East 3.5 mph - N/A   Overcast
2:53 AM 46.0 °F 43.9 °F 36.0 °F 68% 30.24 in 10.0 mi East 4.6 mph - N/A   Overcast
3:53 AM 46.0 °F 42.5 °F 35.1 °F 66% 30.23 in 10.0 mi East 6.9 mph - N/A   Overcast
4:53 AM 46.0 °F 41.0 °F 35.1 °F 66% 30.22 in 10.0 mi SE 10.4 mph - N/A   Overcast
5:53 AM 45.0 °F 38.9 °F 34.0 °F 65% 30.23 in 10.0 mi SE 12.7 mph - N/A   Overcast
6:53 AM 46.0 °F 40.2 °F 33.1 °F 61% 30.23 in 10.0 mi SE 12.7 mph - N/A   Mostly Cloudy
7:53 AM 46.9 °F - 34.0 °F 61% 30.25 in 10.0 mi SE 11.5 mph - N/A   Overcast
8:53 AM 48.9 °F - 34.0 °F 56% 30.25 in 10.0 mi ESE 13.8 mph - N/A   Overcast
9:53 AM 54.0 °F - 34.0 °F 47% 30.26 in 10.0 mi SE 17.3 mph - N/A   Mostly Cloudy
10:53 AM 55.0 °F - 35.1 °F 47% 30.24 in 10.0 mi SE 19.6 mph - N/A   Mostly Cloudy
11:53 AM 57.9 °F - 37.0 °F 46% 30.22 in 10.0 mi SE 21.9 mph - N/A   Overcast
12:53 PM 57.9 °F - 39.0 °F 49% 30.21 in 10.0 mi SSE 17.3 mph - 0.00 in Rain Light Rain
1:53 PM 57.9 °F - 42.1 °F 56% 30.19 in 10.0 mi SSE 15.0 mph - 0.00 in   Overcast
2:53 PM 57.9 °F - 41.0 °F 53% 30.17 in 10.0 mi SE 13.8 mph - 0.00 in   Overcast
3:53 PM 57.0 °F - 43.0 °F 59% 30.15 in 10.0 mi ESE 11.5 mph - 0.00 in Rain Light Rain
4:49 PM 51.8 °F - 44.6 °F 76% 30.17 in 3.0 mi Calm Calm - 0.05 in Rain Rain
4:53 PM 52.0 °F - 45.0 °F 77% 30.18 in 2.5 mi NNW 3.5 mph - 0.06 in Rain Rain
5:45 PM 50.0 °F - 48.2 °F 94% 30.19 in 3.0 mi WNW 5.8 mph - 0.17 in Rain Rain
5:53 PM 50.0 °F - 46.9 °F 89% 30.19 in 3.0 mi NW 5.8 mph - 0.19 in Rain Light Rain
6:31 PM 51.8 °F - 48.2 °F 88% 30.19 in 3.0 mi North 4.6 mph - 0.02 in   Overcast
6:53 PM 50.0 °F - 46.9 °F 89% 30.20 in 3.0 mi NNW 6.9 mph - 0.02 in   Overcast
7:53 PM 50.0 °F - 46.9 °F 89% 30.21 in 10.0 mi NNW 3.5 mph - 0.00 in   Overcast
8:53 PM 51.1 °F - 46.9 °F 86% 30.22 in 10.0 mi NW 8.1 mph - N/A   Mostly Cloudy
9:53 PM 48.9 °F - 45.0 °F 86% 30.23 in 10.0 mi NW 5.8 mph - N/A   Mostly Cloudy
10:53 PM 46.0 °F 41.9 °F 42.1 °F 86% 30.23 in 10.0 mi WNW 8.1 mph - N/A   Mostly Cloudy
11:53 PM 45.0 °F 41.2 °F 41.0 °F 86% 30.25 in 10.0 mi WNW 6.9 mph - N/A   Mostly Cloudy